This is the latest recevied weather packets stored in our database for station/object LA9UTA-13. If no packets are shown the sender has not sent any weather packets the latest 10 day(s).
| Time | Temp. | Humidity | Pressure | Rain* | Wind** | Luminosity | Snow |
|---|---|---|---|---|---|---|---|
| 1777749482 | 9.44° C | 77% | 1009.3 hPa | 0 mm | - | 3 W/m² | - |
| 1777748282 | 9.44° C | 76% | 1009.3 hPa | 0 mm | - | 7 W/m² | - |
| 1777747082 | 10° C | 73% | 1009.3 hPa | 0 mm | - | 11 W/m² | - |
| 1777745882 | 10° C | 72% | 1009.2 hPa | 0 mm | - | 15 W/m² | - |
| 1777744681 | 10° C | 75% | 1009.2 hPa | 0 mm | - | 27 W/m² | - |
| 1777743482 | 10.56° C | 70% | 1009.2 hPa | 0 mm | - | 21 W/m² | - |
| 1777742282 | 11.11° C | 67% | 1009.2 hPa | 0 mm | - | 27 W/m² | - |
| 1777741082 | 11.11° C | 66% | 1010.2 hPa | 0 mm | - | 42 W/m² | - |
| 1777739882 | 11.67° C | 62% | 1010.1 hPa | 0 mm | - | 55 W/m² | - |
| 1777738682 | 11.11° C | 61% | 1010.1 hPa | 0 mm | - | 48 W/m² | - |
| 1777737482 | 11.67° C | 57% | 1010.1 hPa | 0 mm | - | 16 W/m² | - |
| 1777736281 | 12.22° C | 58% | 1010.1 hPa | 0 mm | - | 27 W/m² | - |
| 1777735083 | 12.78° C | 52% | 1010.1 hPa | 0 mm | - | 31 W/m² | - |
| 1777732681 | 14.44° C | 42% | 1009.9 hPa | 0 mm | - | 67 W/m² | - |
| 1777730283 | 16.11° C | 43% | 1009.8 hPa | 0 mm | - | 210 W/m² | - |
| 1777729081 | 16.11° C | 47% | 1009.7 hPa | 0 mm | - | 150 W/m² | - |
| 1777727881 | 16.67° C | 47% | 1009.7 hPa | 0 mm | - | 141 W/m² | - |
| 1777726682 | 17.22° C | 45% | 1009.6 hPa | 0 mm | - | 170 W/m² | - |
| 1777725482 | 16.67° C | 43% | 1010.7 hPa | 0 mm | - | 221 W/m² | - |
| 1777724282 | 17.78° C | 41% | 1010.6 hPa | 0 mm | - | 244 W/m² | - |
| 1777723082 | 17.22° C | 39% | 1010.6 hPa | 0 mm | - | 257 W/m² | - |
| 1777721884 | 16.11° C | 41% | 1010.8 hPa | 0 mm | - | 183 W/m² | - |
| 1777720683 | 16.11° C | 39% | 1010.7 hPa | 0 mm | - | 261 W/m² | - |
| 1777719481 | 16.67° C | 37% | 1010.7 hPa | 0 mm | - | 231 W/m² | - |
| 1777718282 | 16.11° C | 36% | 1011.7 hPa | 0 mm | - | 334 W/m² | - |
* Rain latest hour (hover to see other rain measurements)
** Current wind speed in m/s (hover to see current wind gust speed)